Showing default

VELOX 1, 40057

Orbit data source: Space-Track

VELOX 1, 40057 is a payload satellite owned by NTU (SG) in SSO that was launched on Mon, 30 Jun 2014 UTC via a PSLV launch vehicle from the Sirharikota (SRI). Payload-class satellites include a variety of spacecraft equipped with specific instruments for various scientific and technological missions. These include communications satellites like Starlink; space stations such as the ISS; scientific satellites like the Hubble; Earth observation satellites from companies like Planet Labs, Umbra, and HawkEye 360; GPS; miniature CubeSats for education and research; and military/defense satellites.

Loading next visibility...
Identifier
40057, 2014-034E
Orbit
SSO
Country
Flag of UnknownUnknown / SING
Related business
Manufacturer
NTU
Mission
Non-operational Amateur Technology
Bus & Motor
CUBESAT 3U, Unknown motor
Mass
4.25 kg wet, 4.25 kg dry
Launch date (UTC)
2014-06-30 (11 years ago)
Launch vehicle
PSLV
Launch site
Sirharikota (SRI)
Object type
Payload
Rocket body
Debris
Shape & HBR
Box + 4 Pan, 0.2 m
Radar Cross Section
0.092 m², Medium (>0.1 m² and < 1m²)

Expand to show TLE details & history
Last TLE update: 12 hours ago

TLE from 12 hours ago
0 VELOX 1
1 40057U 14034E   25349.96504679  .00004958  00000-0  45164-3 0  9996
2 40057  98.2691 239.6959 0007940 146.8486 213.3232 14.95625942619192
Epoch: 2025-12-15T23:09Z
TLE epoch observation values (Epoch: 2025-12-15T23:09:40.042Z)
Latitude
-0.00006°
Longitude
167.42302°
Altitude
588.081 km
Speed
7.564 km/s
True Right ascension
15h 58m 47s
True Declination
0° 00' 00"
Sunlit
Object was in daylight at epoch
Visualization orbit readout
Latitude
Unknown
Longitude
Unknown
Altitude
Unknown
Speed
Unknown
Apparent Right ascension
Unknown
Apparent Declination
Unknown
Sunlit
N/A
Visualization observer readout
Local Sidereal Time
09:44:29
Azimuth
Unknown
Elevation
Unknown
Doppler factor
Unknown
Orbital elements
Apogee altitude
582.99 km
Perigee altitude
571.945 km
Semi-major axis
6,955.605 km
Eccentricity
0.00079
Inclination
98.2691°
RAAN
239.6959°
Arg. of periapsis
146.8486°
True anomaly
213.27326°
Mean anomaly
213.3232°
Eccentric anomaly
213.29822°
Mean motion
3.74146 °/min
Orbital period
96.22 mins
BSTAR
0.00045164
Loading maneuver chart data...
Computing Atmospheric mass density...
Loading historical data...
Loading historical data...
Loading historical data...
Loading historical data...
Loading historical data...
Loading historical data...
Loading historical data...
Other satellites on launch #34 in the year 2014 (2014-06-30 UTC)

Documentation

Showing up to 5 results
|